Location: Aldenham
(51.6667°N, 0.3500°W)
Time: 05:56:08
(UTC+00:00)

A-11 Canister half - Pass Details

Date: 17 February 2026
Orbit: 1512 x 1687 km, 47.2° (Epoch: 5 March)

Event Time Altitude Azimuth Distance (km) Brightness Sun altitude
Rises 03:24:15 0° 286° (WNW) 4,872 - -35.1°
Reaches altitude 10° 03:27:44 10° 279° (W) 3,859 - -34.6°
Maximum altitude 03:36:15 36° 218° (SW) 2,337 - -33.5°
Exits shadow 03:40:53 23° 173° (S) 2,841 10.2 -32.8°
Drops below altitude 10° 03:44:30 10° 157° (SSE) 3,726 11.0 -32.3°
Sets 03:47:50 0° 148° (SSE) 4,686 11.6 -31.8°
